FENGYUN 1C DEB

Satellite information

Favourite Embed

Satellite Type and Status

DEBRISIN ORBIT

Key statistics

Satellite FENGYUN 1C DEB at a glance.

Uptime

9555

Days in orbit

Revolutions

≈ 14.2

Per day

Orbit

SSO

Sun Synchronous Orbit

Inclination

98.5

Latest

Satellite identification and parameters

Extended collection of information and parameters for FENGYUN 1C DEB.

Object identification

Identified? True

Debris? True

Object name: FENGYUN 1C DEB

International designator: 1999-025DZV

Object number (NORAD): 36699

Object ID (CCSDS): 36699

Country: PEOPLES REPUBLIC OF CHINA (PRC)

Current information (Y/N): Y

RCS size: SMALL

Orbital parameters

Period: 101.122 minutes

Inclination: 98.5489 deg

SMA: 7189.899 km

Apoapsis: 878.682 km

Periapsis: 744.847 km

RAAN: 185.4909 deg

Eccentricy: 0.0093072

Argument of periapsis: 236.2321 deg

Mean anomaly: 122.9966 deg

Mean motion: 14.24028042 rev/day

Mean motion (dot): 0.00000338 rev/day2

B* drag term: 0.00015891 1/REarth

Two-line elements (TLE)

Creation date: July 6, 2025, 4:10 a.m.

Reference frame: TEME

Reference center: EARTH

Epoch: July 5, 2025, 6:53 p.m. UTC

TLE line 0: 0 FENGYUN 1C DEB

TLE line 1: 1 36699U 99025DZV 25186.78724622 .00000338 00000-0 15891-3 0 9999

TLE line 2: 2 36699 98.5489 185.4909 0093072 236.2321 122.9966 14.24028042710509

Live tracking on map

Real-time ground track for satellite FENGYUN 1C DEB.

In-orbit conjunctions

A list of the most updated potential collisions computed for object FENGYUN 1C DEB.

Target Orbit TCA Probability of collision Miss distance Type
CZ-6A DEB LEO 2025-06-12 15:38:12 0.0003403592 61.0 (m) DEBRIS
CZ-6A DEB SSO 2025-03-31 23:56:07 0.00100766 63.0 (m) DEBRIS
CZ-6A DEB LEO 2025-02-13 21:30:58 0.0001391357 317.0 (m) DEBRIS
CZ-6A DEB SSO 2024-09-19 20:25:25 0.0001255694 353.0 (m) DEBRIS

Associated space launch

Chinese polar orbiting meteorological satellite

FENGYUN 1C DEB was lifted into orbit during the mission ‘Long March 4B | Feng Yun 1C’, on board a Long March 4B space rocket.

The launch took place on May 10, 1999, 1:33 a.m. from Launch Complex 7.

For more information about the launch, click the button.

Launch to space Long March 4B | Feng Yun 1C
Long March 4B | Feng Yun 1C

Agency: N/A

Status: Launch Successful

Launch date: May 10, 1999, 1:33 a.m. UTC

Rocket: Long March 4B

Launch pad: Launch Complex 7

Location: Taiyuan Satellite Launch Center, People's Republic of China

...

Latest news about this satellite

There are no fresh news available about this satellite. Check back as we update our databases every day.


Newsletter sign-up

Weekly statistics, charts and insights to help you stay on top of the space industry.